TimeEST,TemperatureF,Dew PointF,Humidity,Sea Level PressureIn,VisibilityMPH,Wind Direction,Wind SpeedMPH,Gust SpeedMPH,PrecipitationIn,Events,Conditions,WindDirDegrees,DateUTC
12:07 AM,41.0,39.2,93,29.92,0.8,NW,3.5,-,N/A,,Mostly Cloudy,320,2012-12-05 05:07:00
12:17 AM,42.8,42.8,100,29.91,1.0,Calm,Calm,-,N/A,,Overcast,0,2012-12-05 05:17:00
12:38 AM,50.0,48.2,94,29.91,2.0,South,6.9,-,N/A,,Mostly Cloudy,170,2012-12-05 05:38:00
12:47 AM,50.0,50.0,100,29.90,3.0,SSE,4.6,-,N/A,,Mostly Cloudy,160,2012-12-05 05:47:00
12:51 AM,51.1,51.1,100,29.91,3.0,South,4.6,-,N/A,,Mostly Cloudy,180,2012-12-05 05:51:00
1:31 AM,51.8,51.8,100,29.87,5.0,SSE,5.8,-,N/A,,Overcast,160,2012-12-05 06:31:00
1:51 AM,52.0,51.1,97,29.88,4.0,South,5.8,-,N/A,,Mostly Cloudy,180,2012-12-05 06:51:00
2:51 AM,52.0,52.0,100,29.85,4.0,SE,5.8,-,0.00,Rain,Light Rain,140,2012-12-05 07:51:00
3:05 AM,51.8,51.8,100,29.83,5.0,SSE,4.6,-,0.00,,Overcast,150,2012-12-05 08:05:00
3:22 AM,53.6,51.8,94,29.81,6.0,SSE,6.9,-,0.00,Rain,Light Rain,160,2012-12-05 08:22:00
3:51 AM,52.0,52.0,100,29.81,4.0,SSW,3.5,-,0.00,,Overcast,200,2012-12-05 08:51:00
4:27 AM,51.8,51.8,100,29.81,2.0,Calm,Calm,-,0.01,Rain,Rain,0,2012-12-05 09:27:00
4:30 AM,51.8,51.8,100,29.81,1.8,WSW,4.6,-,0.01,Rain,Rain,250,2012-12-05 09:30:00
4:41 AM,51.8,48.2,88,29.83,3.0,West,10.4,20.7,0.05,Rain,Light Rain,270,2012-12-05 09:41:00
4:51 AM,51.1,48.0,89,29.84,10.0,West,12.7,21.9,0.05,Rain,Light Rain,270,2012-12-05 09:51:00
5:51 AM,50.0,46.9,89,29.86,10.0,WNW,9.2,-,0.01,Rain,Light Rain,290,2012-12-05 10:51:00
6:51 AM,48.9,46.0,90,29.86,10.0,West,8.1,-,0.00,,Overcast,270,2012-12-05 11:51:00
7:51 AM,48.0,43.0,83,29.88,10.0,West,8.1,-,N/A,,Overcast,280,2012-12-05 12:51:00
9:51 AM,51.1,39.0,63,29.90,10.0,WNW,9.2,-,N/A,,Overcast,300,2012-12-05 14:51:00
10:51 AM,51.8,35.6,54,29.89,10.0,WNW,13.8,-,N/A,,Scattered Clouds,290,2012-12-05 15:51:00
11:51 AM,50.0,34.0,54,29.89,10.0,WNW,13.8,24.2,N/A,,Mostly Cloudy,290,2012-12-05 16:51:00
12:51 PM,48.9,33.1,54,29.88,10.0,WNW,18.4,29.9,N/A,,Clear,290,2012-12-05 17:51:00
1:51 PM,46.9,30.0,52,29.89,10.0,WNW,19.6,29.9,N/A,,Partly Cloudy,300,2012-12-05 18:51:00
2:51 PM,45.0,28.0,52,29.93,10.0,WNW,13.8,20.7,N/A,,Mostly Cloudy,300,2012-12-05 19:51:00
3:51 PM,41.0,26.1,55,29.96,10.0,NW,12.7,21.9,N/A,,Overcast,310,2012-12-05 20:51:00
4:51 PM,39.0,24.1,55,30.00,10.0,NW,16.1,28.8,N/A,,Overcast,320,2012-12-05 21:51:00
5:51 PM,35.1,26.1,70,30.04,10.0,NNW,13.8,20.7,0.00,,Overcast,330,2012-12-05 22:51:00
6:51 PM,34.0,21.0,59,30.06,10.0,NW,11.5,19.6,N/A,,Overcast,310,2012-12-05 23:51:00
7:51 PM,33.1,18.0,54,30.08,10.0,NW,20.7,28.8,N/A,,Overcast,320,2012-12-06 00:51:00
8:51 PM,32.0,16.0,52,30.09,10.0,WNW,25.3,34.5,N/A,,Mostly Cloudy,300,2012-12-06 01:51:00
9:51 PM,30.0,16.0,56,30.12,10.0,NW,13.8,34.5,N/A,,Mostly Cloudy,320,2012-12-06 02:51:00
10:51 PM,30.0,15.1,54,30.12,10.0,NW,15.0,21.9,N/A,,Overcast,310,2012-12-06 03:51:00
11:51 PM,30.0,17.1,59,30.14,10.0,NW,15.0,25.3,N/A,,Overcast,320,2012-12-06 04:51:00